GSAT0102 (PRN E12)

Last updated on Mon Jul 22 2024 00:03:08 GMT+0000 (Coordinated Universal Time)

1 37847U 11060B 24203.08075178 -.00000072 00000+0 00000+0 0 9992 2 37847 57.1306 0.6176 0002119 14.8399 343.0540 1.70475274 79259
UTC large
Height (km)
Speed (km/s)
/
Latitude / Longitude
Inclination (degrees)
Orbital Period (minutes)
Azimuth
Elevation
Range (km)
Doppler Factor

Next 0 passes for location: London (51.5072 / 0.1276)

Sorry there are no passes over London.